Tracking 30696 objects as of 15-Jun-2025
HD Live streaming from Space Station
objects crossing your sky now

DELTA 1 DEB

Track DELTA 1 DEB now!
10-day predictions


NORAD ID: 9978
Int'l Code: 1973-086GH
Perigee: 1,501.2 km
Apogee: 1,585.9 km
Inclination: 102.0 °
Period: 116.8 minutes
Semi major axis: 7914 km
RCS: 0.0391 m2 (small)
Launch date: November 6, 1973
Source: United States (US)
Launch site: AIR FORCE WESTERN TEST RANGE (AFWTR)

Note: This is SATELLITE DEBRIS
Your satellite tracking list
Your tracking list is empty




NASA's NSSDC Master Catalog

Two Line Element Set (TLE):
1 09978U 73086GH  25163.35041078  .00000238  00000-0  23015-2 0  9998
2 09978 102.0278 109.3437 0053494 267.0617 249.3736 12.33004518247077
Source of the keplerian elements: AFSPC